Location: Lower Kingswood
(51.2667°N, 0.2167°W)
Time: 03:58:34
(UTC+00:00)

Cosmos 489 Rocket - Pass Details

Date: 26 September 2023
Orbit: 953 x 982 km, 74.0° (Epoch: 29 November)

Event Time Altitude Azimuth Distance (km) Brightness Sun altitude
Exits shadow 04:00:38 17° 205° (SSW) 2,240 6.0 -18.0°
Maximum altitude 04:05:39 86° 295° (WNW) 992 4.5 -17.2°
Drops below altitude 10° 04:12:03 10° 24° (NNE) 2,745 7.5 -16.3°
Sets 04:14:36 0° 25° (NNE) 3,694 8.2 -15.9°
